[[{"header":{"parameterUnit":"m.s-1","parameterCategory":1,"la1":30.2991,"la2":30.254,"lo1":-89.0895,"lo2":-89.0444,"dy":0.0017,"dx":0.0017,"nx":28,"ny":28,"refTime":"2025-11-10T03:00:00:Z","depth":0,"parameterNumber":2,"parameterNumberName":"U-component_of_WINDS"},"data":[0,0,0,0,0,0,0,0,0,0,0,0,0,0,0,0,0,0,0,0,0,0,0,0,0,0,0,0,0,0,0,0,0,0,0,0,0,0,0,0,0,0,0,0,0,0,0,0,0,0,0,0,0,0,0,0,0,0,2.8398,2.8398,0,2.8408,2.8408,2.8408,2.8388,2.8387,2.8386,2.8386,2.8395,2.8396,2.8396,0,0,0,0,0,0,0,0,0,0,0,0,0,2.8358,2.8359,2.8398,2.8398,2.8398,2.8408,2.8408,2.8408,2.8388,2.8387,2.8386,2.8385,2.8394,2.8395,2.8397,0,0,0,0,0,0,0,0,0,0,0,0,0,2.8373,2.836,2.8398,2.8389,2.8388,2.8408,2.8408,2.8408,2.8388,2.8387,2.8386,2.8385,2.8394,2.8395,2.8397,2.8425,0,0,2.8401,2.8401,0,0,0,0,0,0,0,0,2.8372,2.8374,2.839,2.839,2.8389,2.8396,2.8398,2.8414,2.8388,2.8388,2.8386,2.8385,2.8396,2.8397,2.8401,2.8425,2.8426,2.8401,2.8402,2.8402,2.8402,0,0,0,0,0,0,0,2.8371,2.8374,2.8402,2.839,2.839,2.8384,2.8385,2.8401,2.8397,2.8388,2.8387,2.8388,2.8395,2.84,2.8401,2.8426,2.8401,2.8402,2.8403,2.8403,2.8473,2.8474,0,0,0,0,0,0,2.8371,2.8373,2.8401,2.8402,2.8378,2.8386,2.8387,2.8394,2.8397,2.8397,2.8389,2.8387,2.8398,2.84,2.8401,2.8434,2.8402,2.8403,2.8404,2.8472,2.8474,2.8475,0,0,0,0,0,0,2.8371,2.8374,2.8401,2.8387,2.839,2.8387,2.8396,2.8395,2.84,2.8398,2.8397,2.8394,2.8397,2.8399,2.8419,2.8434,2.8404,2.8405,2.8471,2.8473,2.8474,2.8499,0,0,0,0,0,0,2.837,2.8374,2.8385,2.8388,2.8391,2.8419,2.8397,2.8396,2.8402,2.84,2.8403,2.8402,2.8397,2.8417,2.842,2.8435,2.8406,2.847,2.8472,2.8474,2.8497,2.8502,2.8506,0,0,0,0,0,2.8368,2.8391,2.8386,2.8389,2.8405,2.842,2.8422,2.8415,2.8404,2.8414,2.8413,2.8402,2.8432,2.842,2.8423,2.8438,2.8469,2.8471,2.8474,2.8495,2.8501,2.8505,0,0,0,0,0,0,2.8389,2.8391,2.8385,2.841,2.8415,2.8416,2.843,2.8422,2.843,2.8427,2.8419,2.8419,2.8441,2.8442,2.8428,2.8465,2.8448,2.8452,2.8464,2.8469,2.8473,2.8472,2.8407,0,0,0,0,0,2.8397,2.841,2.8411,2.8432,2.8435,2.8432,2.8439,2.8434,2.8438,2.844,2.8441,2.8445,2.8456,2.8463,2.8472,2.8498,2.8498,2.851,2.8514,2.8518,2.852,2.8533,2.8538,2.8483,2.8483,2.8483,0,0,2.8412,2.8415,2.8424,2.8437,2.844,2.8453,2.8434,2.8449,2.8458,2.8442,2.8461,2.8461,2.8466,2.8489,2.8499,2.849,2.8536,2.8521,2.8524,2.8524,2.8536,2.8541,2.8546,2.8485,2.8484,2.8484,0,0,2.8447,2.8451,2.8469,2.8473,2.8479,2.8477,2.8482,2.8485,2.8485,2.8504,2.8492,2.8503,2.8521,2.8525,2.8529,2.8567,2.8556,2.857,2.8591,2.8604,2.8608,2.8612,2.8624,2.8629,2.8573,2.8573,2.8573,0,2.8465,2.8485,2.8479,2.8495,2.85,2.8488,2.8506,2.851,2.8519,2.8523,2.8513,2.8536,2.8539,2.8562,2.8571,2.8575,2.858,2.8569,2.8608,2.8612,2.8616,2.8627,2.8632,2.8574,2.8574,2.8574,2.8574,0,2.8506,2.852,2.8534,2.8543,2.8551,2.8567,2.8564,2.8572,2.8567,2.8566,2.8585,2.8588,2.8598,2.8603,2.8598,2.8626,2.862,2.861,2.8592,2.8622,2.8633,2.8638,2.8577,2.8576,2.8576,2.8575,0,0,2.8552,2.8559,2.8564,2.8568,2.8575,2.8585,2.8601,2.8612,2.8618,2.8625,2.8638,2.8654,2.8645,2.865,2.8645,2.8657,2.8685,2.8645,2.8645,2.8651,2.8715,2.8722,2.8727,2.8679,2.868,2.8681,2.8714,0,2.8585,2.8614,2.861,2.8637,2.8649,2.8639,2.8653,2.8658,2.8658,2.8668,2.8667,2.8679,2.8666,2.8669,2.868,2.8679,2.8698,2.8677,2.869,2.869,2.8687,2.8733,2.8739,2.8771,2.8718,2.8719,2.872,0,2.8628,2.8637,2.8665,2.867,2.8675,2.8687,2.8697,2.8707,2.8713,2.8712,2.8718,2.8711,2.8727,2.8711,2.8732,2.8718,2.8723,2.8724,2.8725,2.8724,2.8706,2.8732,2.878,2.8785,2.8726,2.8726,2.8725,0,2.8657,2.8676,2.8696,2.87,2.8706,2.8715,2.8718,2.8723,2.8729,2.8737,2.8741,2.8751,2.8756,2.8764,2.876,2.8749,2.8781,2.8765,2.878,2.878,2.8786,2.8785,2.8834,2.8792,2.8792,2.8792,2.8792,0,2.8693,2.8711,2.8709,2.8721,2.874,2.8736,2.8754,2.8756,2.8761,2.8772,2.8764,2.8775,2.877,2.878,2.8777,2.8795,2.8797,2.8796,2.8795,2.8796,2.8796,2.8798,2.8795,2.8793,2.8793,2.8793,2.8792,0,2.8728,2.8728,2.8748,2.8753,2.8755,2.8769,2.8772,2.8783,2.8783,2.8798,2.8801,2.88,2.8812,2.8809,2.8822,2.882,2.8842,2.8839,2.884,2.8839,2.8853,2.8852,2.8904,2.8911,2.8866,2.8866,2.8867,0,2.8751,2.8764,2.8771,2.8778,2.8782,2.8794,2.8801,2.8798,2.8805,2.8813,2.8823,2.8835,2.8843,2.8863,2.8863,2.8873,2.8869,2.8887,2.887,2.8871,2.8867,2.8866,2.8867,2.8889,2.889,2.889,2.8891,0,2.879,2.879,2.8801,2.8812,2.882,2.8828,2.8836,2.8842,2.884,2.8848,2.8861,2.8868,2.8881,2.8892,2.8902,2.8904,2.8897,2.8896,2.89,2.89,2.89,2.8899,2.8847,2.8894,2.8894,2.8894,2.8894,2.8893,2.8819,2.883,2.8837,2.8849,2.8855,2.8862,2.8872,2.8874,2.8884,2.8896,2.8893,2.8907,2.8913,2.8925,2.8928,2.8939,2.8932,2.8938,2.8939,2.894,2.8941,2.89,2.8941,2.894,2.894,2.894,2.894,0,2.8857,2.8861,2.8873,2.8884,2.8893,2.8887,2.8895,2.8903,2.8916,2.8922,2.8931,2.8946,2.8956,2.8958,2.8969,2.8977,2.8973,2.8979,2.8978,2.8978,2.8947,2.8942,2.8982,2.8982,2.8982,2.8982,2.8982,2.8982,2.8878,2.8896,2.8897,2.8918,2.8922,2.8936,2.8941,2.8947,2.8952,2.8969,2.8978,2.898,2.8984,2.8995,2.9005,2.9005,2.9008,2.9015,2.9014,2.8985,2.898,2.8976,2.8972,2.9017,2.9017,2.9044,2.9044,2.9044]},{"header":{"parameterUnit":"m.s-1","parameterCategory":1,"la1":30.2991,"la2":30.254,"lo1":-89.0895,"lo2":-89.0444,"dy":0.0017,"dx":0.0017,"nx":28,"ny":28,"refTime":"2025-11-10T03:00:00:Z","depth":0,"parameterNumber":3,"parameterNumberName":"V-component_of_WINDS"},"data":[0,0,0,0,0,0,0,0,0,0,0,0,0,0,0,0,0,0,0,0,0,0,0,0,0,0,0,0,0,0,0,0,0,0,0,0,0,0,0,0,0,0,0,0,0,0,0,0,0,0,0,0,0,0,0,0,0,0,-7.7909,-7.7911,0,-7.8107,-7.8109,-7.8111,-7.8026,-7.8021,-7.8016,-7.8012,-7.8207,-7.8217,-7.8226,0,0,0,0,0,0,0,0,0,0,0,0,0,-7.7451,-7.746,-7.7909,-7.7911,-7.7914,-7.8106,-7.8109,-7.8112,-7.8027,-7.8021,-7.8015,-7.8009,-7.8204,-7.8216,-7.8227,0,0,0,0,0,0,0,0,0,0,0,0,0,-7.7649,-7.7463,-7.7908,-7.7895,-7.7895,-7.8106,-7.8109,-7.8113,-7.8028,-7.8021,-7.8013,-7.8007,-7.82,-7.8215,-7.8229,-7.8463,0,0,-7.8273,-7.828,0,0,0,0,0,0,0,0,-7.7638,-7.7666,-7.7894,-7.7896,-7.7897,-7.8034,-7.8019,-7.823,-7.803,-7.7977,-7.8011,-7.8003,-7.8155,-7.8173,-7.8226,-7.8472,-7.848,-7.8275,-7.8283,-7.829,-7.8294,0,0,0,0,0,0,0,-7.7624,-7.7657,-7.7987,-7.7897,-7.7899,-7.7876,-7.7897,-7.8059,-7.8104,-7.7981,-7.7976,-7.8001,-7.8154,-7.8212,-7.823,-7.8483,-7.8274,-7.8287,-7.8296,-7.8302,-7.8931,-7.8938,0,0,0,0,0,0,-7.7612,-7.7646,-7.7981,-7.7993,-7.7748,-7.7891,-7.7913,-7.7997,-7.8102,-7.8111,-7.8006,-7.7996,-7.8191,-7.8213,-7.8236,-7.8517,-7.829,-7.8303,-7.8311,-7.8923,-7.8933,-7.8941,0,0,0,0,0,0,-7.7602,-7.7642,-7.7973,-7.7818,-7.7859,-7.7906,-7.8001,-7.8005,-7.8062,-7.8121,-7.8128,-7.8057,-7.8186,-7.8216,-7.8408,-7.8523,-7.831,-7.8323,-7.8913,-7.8926,-7.8937,-7.9081,0,0,0,0,0,0,-7.7589,-7.7639,-7.773,-7.7821,-7.7867,-7.8143,-7.8009,-7.8014,-7.8089,-7.8077,-7.8171,-7.8179,-7.8182,-7.8386,-7.8422,-7.8539,-7.8334,-7.8903,-7.8919,-7.8933,-7.9066,-7.9097,-7.9123,0,0,0,0,0,-7.7573,-7.7761,-7.7735,-7.7776,-7.7982,-7.815,-7.8176,-7.8178,-7.8098,-7.8189,-7.8227,-7.8176,-7.8504,-7.8407,-7.8446,-7.8569,-7.8896,-7.8915,-7.8932,-7.9054,-7.9091,-7.9122,0,0,0,0,0,0,-7.768,-7.7773,-7.7745,-7.7968,-7.8053,-7.8135,-7.825,-7.8217,-7.8323,-7.8307,-7.8303,-7.8325,-7.8523,-7.8565,-7.8455,-7.8801,-7.8688,-7.8714,-7.8767,-7.8802,-7.883,-7.8816,-7.8346,0,0,0,0,0,-7.773,-7.7861,-7.7934,-7.8124,-7.8168,-7.8202,-7.8275,-7.827,-7.8355,-7.8389,-7.8441,-7.8524,-7.8646,-7.8726,-7.8841,-7.9072,-7.9091,-7.9176,-7.9204,-7.9226,-7.925,-7.9375,-7.9413,-7.9,-7.9,-7.9,0,0,-7.7834,-7.7901,-7.7983,-7.8147,-7.8212,-7.8345,-7.8232,-7.8378,-7.8477,-7.8411,-7.8596,-7.8637,-7.8729,-7.8942,-7.9038,-7.8982,-7.9368,-7.9249,-7.9267,-7.9278,-7.9397,-7.9436,-7.9471,-7.9012,-7.901,-7.9008,0,0,-7.8092,-7.8156,-7.8322,-7.8389,-7.8489,-7.8511,-7.8551,-7.8639,-7.8665,-7.8851,-7.8804,-7.892,-7.913,-7.9198,-7.926,-7.9545,-7.9503,-7.9582,-7.9729,-7.9851,-7.9884,-7.9913,-8.0015,-8.0051,-7.9605,-7.9606,-7.9606,0,-7.8208,-7.8411,-7.8411,-7.8562,-7.8635,-7.8584,-7.8751,-7.8815,-7.8946,-7.8997,-7.8934,-7.9197,-7.9256,-7.9483,-7.9553,-7.9605,-7.965,-7.9572,-7.988,-7.9909,-7.9935,-8.0033,-8.0071,-7.9615,-7.9614,-7.9613,-7.9612,0,-7.8548,-7.8689,-7.881,-7.8942,-7.9028,-7.9186,-7.9209,-7.9296,-7.9283,-7.9311,-7.9501,-7.957,-7.9698,-7.9751,-7.9739,-7.9978,-7.9941,-7.9879,-7.9765,-7.9984,-8.0075,-8.0112,-7.9628,-7.9625,-7.9622,-7.962,0,0,-7.8879,-7.901,-7.9055,-7.9114,-7.922,-7.9328,-7.9483,-7.9611,-7.9686,-7.9778,-7.9908,-8.0087,-8.0031,-8.0102,-8.0096,-8.0203,-8.0425,-8.0128,-8.013,-8.0181,-8.0693,-8.0739,-8.0783,-8.0397,-8.0405,-8.041,-8.0685,0,-7.9146,-7.9421,-7.9426,-7.9678,-7.9807,-7.976,-7.9895,-7.9974,-8.0004,-8.0117,-8.0149,-8.0277,-8.0193,-8.0235,-8.0339,-8.0376,-8.0528,-8.0356,-8.0517,-8.0522,-8.0496,-8.083,-8.088,-8.1136,-8.0721,-8.0727,-8.0731,0,-7.9494,-7.96,-7.9866,-7.9954,-8.0009,-8.0131,-8.0249,-8.0358,-8.0446,-8.046,-8.054,-8.0518,-8.0675,-8.0556,-8.0771,-8.0655,-8.072,-8.0748,-8.0758,-8.0774,-8.0641,-8.0855,-8.1218,-8.1257,-8.0787,-8.0783,-8.0779,0,-7.971,-7.9919,-8.0105,-8.0157,-8.0264,-8.0351,-8.04,-8.0481,-8.0558,-8.066,-8.071,-8.0828,-8.0893,-8.0984,-8.0995,-8.0908,-8.1212,-8.1093,-8.1227,-8.1227,-8.1293,-8.1289,-8.1672,-8.1335,-8.1334,-8.1333,-8.1333,0,-8.0007,-8.0172,-8.0204,-8.0318,-8.05,-8.0504,-8.0683,-8.0724,-8.0797,-8.0917,-8.0882,-8.0996,-8.1003,-8.1118,-8.1127,-8.1304,-8.1333,-8.1348,-8.1349,-8.1352,-8.135,-8.1395,-8.1378,-8.1344,-8.1341,-8.1339,-8.1338,0,-8.028,-8.0308,-8.0508,-8.0594,-8.0619,-8.075,-8.0823,-8.0931,-8.0958,-8.1111,-8.1146,-8.1188,-8.1323,-8.1342,-8.1499,-8.1505,-8.1717,-8.1699,-8.1689,-8.1686,-8.1819,-8.1806,-8.2245,-8.2303,-8.1927,-8.193,-8.1933,0,-8.0468,-8.0594,-8.0694,-8.0774,-8.0828,-8.0956,-8.1035,-8.1042,-8.1125,-8.1236,-8.1331,-8.1462,-8.1568,-8.1785,-8.1827,-8.1947,-8.1931,-8.2077,-8.1949,-8.1949,-8.1934,-8.1927,-8.194,-8.2102,-8.2106,-8.2109,-8.2112,0,-8.08,-8.0808,-8.0925,-8.1047,-8.1143,-8.1239,-8.1329,-8.1395,-8.1414,-8.1509,-8.1648,-8.173,-8.1892,-8.2022,-8.2141,-8.2188,-8.2154,-8.2152,-8.2189,-8.2194,-8.2184,-8.2192,-8.1757,-8.2142,-8.2139,-8.2136,-8.2135,-8.2134,-8.1037,-8.1146,-8.1235,-8.1366,-8.1435,-8.1521,-8.1628,-8.1669,-8.1785,-8.1919,-8.1915,-8.2068,-8.2152,-8.2308,-8.2364,-8.2482,-8.2434,-8.2488,-8.2501,-8.2515,-8.2529,-8.2165,-8.2503,-8.2502,-8.2501,-8.2501,-8.25,0,-8.1367,-8.1422,-8.1543,-8.1672,-8.1775,-8.1735,-8.1833,-8.1922,-8.2057,-8.2139,-8.2245,-8.2404,-8.2531,-8.2584,-8.2708,-8.2792,-8.2779,-8.2825,-8.2819,-8.283,-8.2564,-8.252,-8.2833,-8.2833,-8.2833,-8.2833,-8.2833,-8.2833,-8.1552,-8.1736,-8.1754,-8.1972,-8.2025,-8.2176,-8.2236,-8.2314,-8.238,-8.256,-8.2667,-8.2701,-8.2772,-8.2901,-8.3015,-8.3027,-8.3074,-8.3127,-8.3132,-8.2882,-8.2849,-8.2817,-8.2775,-8.3137,-8.3138,-8.3389,-8.3391,-8.3393]}]]